{"data":{"norad_id":67577,"epoch":"2026-05-25T03:42:25.286976Z","epoch_age_seconds":61875,"freshness":"FRESH","line1":"1 67577U 26016S   26145.15445934  .00020050  00000+0  62156-3 0  9999","line2":"2 67577  97.2846 205.5009 0000740 101.7293 258.4033 15.33453930 18588","mean_motion":15.3345393,"eccentricity":7.4e-5,"inclination_deg":97.2846,"raan_deg":205.5009,"arg_perigee_deg":101.7293,"mean_anomaly_deg":258.4033,"bstar":0.00062156,"rev_number":1858,"period_min":93.905657798275,"perigee_km":465.01017484307,"apogee_km":466.02303557664,"semimajor_km":6843.6536052099,"source":"CELESTRAK","updated_at":"2026-05-25T13:38:21.616604Z"}}